Regional Weather Roundup
Issued by NWS

Home | Current Version | Previous Version | Text Only | Print | Product List | Glossary On
Versions: 1 2 3 4 5 6 7 8 9 10 11 12 13 14 15 16 17 18 19 20 21 22 23 24 25 26 27 28 29 30 31 32 33 34 35 36 37 38 39 40 41 42 43 44 45 46 47 48 49 50
000
ASUS43 KBIS 250902
RWRND

NORTH DAKOTA REGIONAL WEATHER ROUNDUP
NATIONAL WEATHER SERVICE BISMARCK ND
400 AM CDT THU MAY 25 2017

NOTE: "FAIR" INDICATES FEW OR NO CLOUDS BELOW 12,000 FEET WITH NO
SIGNIFICANT WEATHER AND/OR OBSTRUCTIONS TO VISIBILITY.


NDZ001>003-009>011-017-251000-
NORTHWEST NORTH DAKOTA

CITY           SKY/WX    TMP DP  RH WIND       PRES   REMARKS
WILLISTON      FAIR      49  46  90 SW5       29.38R
MINOT          CLOUDY    54  49  83 SE9       29.40S
MINOT AFB      DRIZZLE   53  51  93 S17       29.36F
$$

NDZ018>021-031>035-040>046-251000-
SOUTHWEST NORTH DAKOTA

CITY           SKY/WX    TMP DP  RH WIND       PRES   REMARKS
BISMARCK       CLOUDY    53  48  83 SE7       29.42R
DICKINSON      FAIR      44  44 100 CALM      29.38R
GARRISON         N/A     51  48  89 E8        29.40F
HETTINGER ARPT CLOUDY    48  45  89 NE8       29.40R
$$

NDZ004>008-012>016-024-026-027-054-251000-
NORTHEAST NORTH DAKOTA

CITY           SKY/WX    TMP DP  RH WIND       PRES   REMARKS
GRAND FORKS    PTCLDY    50  43  77 SE12      29.58F
GRND FRKS AFB  CLOUDY    48  41  78 SE8       29.58F
DEVILS LAKE    FAIR      51  43  74 SE20G26   29.51F
$$

NDZ022-023-025-028>030-036>039-047>053-251000-
SOUTHEAST NORTH DAKOTA

CITY           SKY/WX    TMP DP  RH WIND       PRES   REMARKS
FARGO          CLEAR     52  42  69 SE12      29.60F
JAMESTOWN      FAIR      50  43  77 SE21G30   29.48F
$$





USA.gov is the U.S. government's official web portal to all federal, state and local government web resources and services.